Location: Gilevgi
(36.8751°N, 30.0581°E)
Time: 15:17:21
(UTC+00:00)

Cosmos 2058 Rocket - Pass Details

Date: 11 December 2025
Orbit: 603 x 633 km, 82.5° (Epoch: 16 January)

Event Time Altitude Azimuth Distance (km) Brightness Sun altitude
Rises 16:02:58 0° 179° (S) 2,905 6.7 -15.4°
Reaches altitude 10° 16:05:11 10° 177° (S) 2,004 5.8 -15.9°
Maximum altitude 16:09:36 68° 95° (E) 681 3.0 -16.7°
Enters shadow 16:13:51 11° 13° (NNE) 1,940 5.3 -17.5°
